DIRECTV 12

Last updated on Sun Jun 21 2026 00:03:04 GMT+0000 (Coordinated Universal Time)

1 36131U 09075A 26171.12368068 -.00000108 00000+0 00000+0 0 9994 2 36131 0.0333 172.6604 0000305 302.1866 95.2890 1.00271840 46584
UTC large
Height (km)
Speed (km/s)
/
Latitude / Longitude
Inclination (degrees)
Orbital Period (minutes)
Azimuth
Elevation
Range (km)
Doppler Factor

Next 0 passes for location: London (51.5072 / 0.1276)

No passes found over London.
DIRECTV 12